Weather History for KMCF - February, 2013

Change the Weather History Date:

Sunday, February 24, 2013

  Actual Average Record
Temperature  
Mean Temperature 72 °F -  
Max Temperature 78 °F 73 °F 86 °F (2001)
Min Temperature 66 °F 54 °F 43 °F (2009)
Cooling Degree Days 7    
Growing Degree Days 22 (Base 50)    
Moisture  
Dew Point 68 °F    
Average Humidity 99    
Maximum Humidity 100    
Minimum Humidity 79    
Precipitation  
Precipitation 0.00 in - - ()
Sea Level Pressure  
Sea Level Pressure 29.94 in    
Wind  
Wind Speed 8 mph (West)    
Max Wind Speed 13 mph    
Max Gust Speed -    
Visibility 4 miles    
Events Fog    
Averages and records for this station are not official NWS values.
T = Trace of Precipitation, MM = Missing Value Source: NWS Daily Summary

Daily Weather History Graph

Daily Weather History Graph

Search for Another Location

Airport or City:

Trip Planner

Search our weather history database for the weather conditions in past years. The results will help you decide how hot, cold, wet, or windy it might be!

Date:

Astronomy

Feb. 24, 2013 Rise Set
Actual Time 6:59 AM EST 6:27 PM EST
Civil Twilight 6:35 AM EST 6:51 PM EST
Nautical Twilight 6:08 AM EST 7:18 PM EST
Astronomical Twilight 5:41 AM EST 7:45 PM EST
Moon 5:37 PM EST (2/24) 5:53 AM EST (2/24)
Length of Visible Light 12h 15m
Length of Day
11h 28m
Waxing Gibbous, 99% of the Moon is Illuminated
Feb 24
Waxing Gibbous
Feb 25
Full
Mar 4
Last Quarter
Mar 11
New
Mar 19
First Quarter

Hourly Weather History & Observations

Time (EST) Temp. Dew Point Humidity Pressure Visibility Wind Dir Wind Speed Gust Speed Precip Events Conditions
12:03 AM 68.0 °F 68.0 °F 100% 29.95 in 0.2 mi West 10.4 mph - N/A Fog Fog
12:33 AM 68.0 °F 68.0 °F 100% 29.94 in 0.5 mi West 11.5 mph - N/A Fog Fog
12:53 AM 68.0 °F 68.0 °F 100% 29.95 in 0.2 mi WNW 9.2 mph - N/A Fog Fog
12:58 AM 68.0 °F 68.0 °F 100% 29.96 in 0.2 mi WNW 8.1 mph - N/A Fog Fog
1:28 AM 68.0 °F 68.0 °F 100% 29.94 in 0.5 mi WNW 10.4 mph - N/A Fog Fog
1:33 AM 68.0 °F 68.0 °F 100% 29.94 in 0.5 mi WNW 10.4 mph - N/A Fog Fog
1:38 AM 68.0 °F 68.0 °F 100% 29.94 in 0.5 mi WNW 10.4 mph - N/A Fog Fog
1:43 AM 68.0 °F 68.0 °F 100% 29.94 in 0.8 mi West 9.2 mph - N/A   Mist
1:48 AM 68.0 °F 68.0 °F 100% 29.94 in 0.5 mi West 8.1 mph - N/A Fog Fog
1:58 AM 68.0 °F 68.0 °F 100% 29.94 in 0.5 mi West 9.2 mph - N/A Fog Fog
2:03 AM 68.0 °F 68.0 °F 100% 29.93 in 0.5 mi West 11.5 mph - N/A Fog Fog
2:08 AM 68.0 °F 68.0 °F 100% 29.93 in 0.8 mi West 10.4 mph - N/A   Mist
2:18 AM 68.0 °F 68.0 °F 100% 29.92 in 0.5 mi West 9.2 mph - N/A Fog Fog
2:38 AM 68.0 °F 68.0 °F 100% 29.91 in 0.5 mi West 8.1 mph - N/A Fog Fog
2:48 AM 68.0 °F 68.0 °F 100% 29.91 in 0.5 mi West 9.2 mph - N/A Fog Fog
2:53 AM 68.0 °F 68.0 °F 100% 29.91 in 0.2 mi WSW 6.9 mph - N/A Fog Fog
2:58 AM 68.0 °F 68.0 °F 100% 29.92 in 0.2 mi West 8.1 mph - N/A Fog Fog
3:08 AM 68.0 °F 68.0 °F 100% 29.92 in 0.5 mi West 8.1 mph - N/A Fog Fog
3:23 AM 68.0 °F 68.0 °F 100% 29.91 in 0.2 mi West 9.2 mph - N/A Fog Fog
3:48 AM 68.0 °F 68.0 °F 100% 29.90 in 0.5 mi West 9.2 mph - N/A Fog Fog
3:53 AM 68.0 °F 68.0 °F 100% 29.89 in 0.5 mi West 6.9 mph - N/A Fog Fog
3:58 AM 68.0 °F 68.0 °F 100% 29.90 in 0.5 mi WSW 6.9 mph - N/A Fog Fog
4:03 AM 68.0 °F 68.0 °F 100% 29.90 in 0.8 mi West 8.1 mph - N/A   Mist
4:23 AM 68.0 °F 68.0 °F 100% 29.90 in 1.2 mi West 6.9 mph - N/A   Overcast
4:28 AM 68.0 °F 68.0 °F 100% 29.91 in 2.0 mi West 5.8 mph - N/A   Overcast
4:38 AM 68.0 °F 68.0 °F 100% 29.91 in 2.5 mi NNW 3.5 mph - N/A   Overcast
4:53 AM 68.0 °F 68.0 °F 100% 29.92 in 1.8 mi WNW 4.6 mph - N/A   Overcast
4:58 AM 68.4 °F 68.4 °F 100% 29.93 in 1.8 mi West 6.9 mph - N/A   Overcast
5:03 AM 68.0 °F 68.0 °F 100% 29.92 in 1.2 mi West 6.9 mph - N/A   Overcast
5:08 AM 68.0 °F 68.0 °F 100% 29.92 in 1.0 mi WNW 6.9 mph - N/A   Mist
5:13 AM 68.0 °F 68.0 °F 100% 29.92 in 1.0 mi West 5.8 mph - N/A   Mist
5:18 AM 68.0 °F 68.0 °F 100% 29.92 in 0.8 mi West 6.9 mph - N/A   Mist
5:23 AM 68.0 °F 68.0 °F 100% 29.92 in 0.5 mi WNW 6.9 mph - N/A Fog Fog
5:43 AM 68.0 °F 68.0 °F 100% 29.93 in 0.8 mi West 8.1 mph - N/A   Mist
5:58 AM 68.4 °F 68.4 °F 100% 29.94 in 0.8 mi West 4.6 mph - N/A   Mist
6:03 AM 68.0 °F 68.0 °F 100% 29.93 in 1.0 mi West 5.8 mph - N/A   Mist
6:08 AM 68.0 °F 68.0 °F 100% 29.94 in 1.0 mi West 5.8 mph - N/A   Mist
6:13 AM 68.0 °F 68.0 °F 100% 29.94 in 1.2 mi West 5.8 mph - N/A   Overcast
6:18 AM 68.0 °F 68.0 °F 100% 29.94 in 1.8 mi West 5.8 mph - N/A   Overcast
6:23 AM 68.0 °F 68.0 °F 100% 29.94 in 2.5 mi West 5.8 mph - N/A   Overcast
6:28 AM 68.0 °F 68.0 °F 100% 29.94 in 1.8 mi West 4.6 mph - N/A   Overcast
6:33 AM 68.0 °F 68.0 °F 100% 29.94 in 1.2 mi West 4.6 mph - N/A   Overcast
6:38 AM 68.0 °F 68.0 °F 100% 29.95 in 1.5 mi West 4.6 mph - N/A   Overcast
6:43 AM 68.0 °F 68.0 °F 100% 29.95 in 2.5 mi West 5.8 mph - N/A   Overcast
6:48 AM 68.0 °F 68.0 °F 100% 29.95 in 4.0 mi West 8.1 mph - N/A   Overcast
6:58 AM 68.4 °F 68.4 °F 100% 29.97 in 8.0 mi West 8.1 mph - N/A   Overcast
7:13 AM 68.0 °F 68.0 °F 100% 29.96 in 10.0 mi West 6.9 mph - N/A   Overcast
7:23 AM 68.0 °F 68.0 °F 100% 29.96 in 9.0 mi West 6.9 mph - N/A   Mostly Cloudy
7:33 AM 68.0 °F 68.0 °F 100% 29.96 in 9.0 mi West 5.8 mph - N/A   Scattered Clouds
7:58 AM 68.7 °F 68.7 °F 100% 29.98 in 10.0 mi West 10.4 mph - N/A   Scattered Clouds
8:08 AM 68.0 °F 68.0 °F 100% 29.97 in 10.0 mi West 10.4 mph - N/A   Mostly Cloudy
8:13 AM 68.0 °F 68.0 °F 100% 29.97 in 10.0 mi West 11.5 mph - N/A   Scattered Clouds
8:18 AM 68.0 °F 68.0 °F 100% 29.97 in 10.0 mi West 10.4 mph - N/A   Mostly Cloudy
8:23 AM 68.0 °F 68.0 °F 100% 29.97 in 10.0 mi West 9.2 mph - N/A   Scattered Clouds
8:33 AM 69.8 °F 69.8 °F 100% 29.97 in 10.0 mi West 10.4 mph - N/A   Mostly Cloudy
8:58 AM 70.0 °F 70.0 °F 100% 29.98 in 10.0 mi West 9.2 mph - N/A   Overcast
9:33 AM 71.6 °F 71.6 °F 100% 29.97 in 10.0 mi West 10.4 mph - N/A   Scattered Clouds
9:58 AM 72.5 °F 72.5 °F 100% 29.98 in 10.0 mi WNW 10.4 mph - N/A   Clear
10:58 AM 76.6 °F 72.5 °F 87% 29.98 in 10.0 mi West 11.5 mph - N/A   Clear
11:58 AM 78.3 °F 71.2 °F 79% 29.98 in 10.0 mi WNW 12.7 mph - N/A   Partly Cloudy
12:58 PM 78.1 °F 71.8 °F 81% 29.97 in 10.0 mi West 11.5 mph - N/A   Clear
1:58 PM 75.2 °F 71.4 °F 88% 29.95 in 10.0 mi West 9.2 mph - N/A   Clear
2:58 PM 73.9 °F 71.2 °F 91% 29.95 in 10.0 mi WNW 8.1 mph - N/A   Clear
3:58 PM 71.6 °F 71.2 °F 99% 29.94 in 10.0 mi WNW 5.8 mph - N/A   Clear
4:58 PM 72.0 °F 71.8 °F 99% 29.93 in 10.0 mi WNW 8.1 mph - N/A   Clear
5:58 PM 71.4 °F 71.4 °F 100% 29.94 in 10.0 mi NW 4.6 mph - N/A   Clear
6:58 PM 69.8 °F 69.6 °F 99% 29.95 in 10.0 mi WNW 4.6 mph - N/A   Clear
7:58 PM 69.3 °F 69.3 °F 100% 29.96 in 6.0 mi Calm Calm - N/A   Clear
8:11 PM 69.8 °F 69.8 °F 100% 29.95 in 8.0 mi Calm Calm - N/A   Light Drizzle
8:20 PM 68.0 °F 68.0 °F 100% 29.95 in 5.0 mi Calm Calm - N/A   Clear
8:30 PM 68.0 °F 68.0 °F 100% 29.95 in 2.5 mi Calm Calm - N/A   Clear
8:35 PM 68.0 °F 68.0 °F 100% 29.95 in 1.5 mi Calm Calm - N/A   Clear
8:40 PM 68.0 °F 68.0 °F 100% 29.95 in 1.2 mi Calm Calm - N/A   Clear
8:45 PM 68.0 °F 68.0 °F 100% 29.95 in 1.5 mi Calm Calm - N/A   Clear
8:50 PM 68.0 °F 68.0 °F 100% 29.95 in 0.8 mi Calm Calm - N/A   Clear
8:55 PM 68.0 °F 68.0 °F 100% 29.95 in 0.5 mi Calm Calm - N/A Fog Fog
8:58 PM 67.6 °F 67.6 °F 100% 29.96 in 0.2 mi Calm Calm - 0.00 in Fog Fog
9:03 PM 68.0 °F 68.0 °F 100% 29.95 in 0.5 mi Calm Calm - N/A Fog Fog
9:18 PM 66.2 °F 66.2 °F 100% 29.94 in 0.8 mi SE 3.5 mph - N/A   Clear
9:23 PM 66.2 °F 66.2 °F 100% 29.95 in 4.0 mi East 1.2 mph - N/A   Clear
9:28 PM 66.2 °F 66.2 °F 100% 29.95 in 2.5 mi Calm Calm - N/A   Clear
9:33 PM 66.2 °F 66.2 °F 100% 29.95 in 3.0 mi Calm Calm - N/A   Clear
9:58 PM 66.0 °F 66.0 °F 100% 29.95 in 6.0 mi South 3.5 mph - N/A   Clear
10:28 PM 66.2 °F 66.2 °F 100% 29.93 in 2.0 mi Calm Calm - N/A   Clear
10:38 PM 66.2 °F 66.2 °F 100% 29.93 in 1.5 mi Calm Calm - N/A   Clear
10:43 PM 66.2 °F 66.2 °F 100% 29.93 in 1.2 mi Calm Calm - N/A   Partly Cloudy
10:48 PM 66.2 °F 66.2 °F 100% 29.93 in 0.8 mi Calm Calm - N/A   Partly Cloudy
10:53 PM 66.2 °F 66.2 °F 100% 29.93 in 0.5 mi SSE 5.8 mph - N/A Fog Fog
10:58 PM 66.0 °F 66.0 °F 100% 29.93 in 1.0 mi SSE 5.8 mph - N/A   Clear
11:03 PM 66.2 °F 66.2 °F 100% 29.92 in 3.0 mi SSE 5.8 mph - N/A   Clear
11:58 PM 66.0 °F 66.0 °F 100% 29.93 in 6.0 mi Calm Calm - N/A   Clear